,,PA_Meas_PMT16A,,PR_Meas_QMR101_102,,RH_Meas_QMH101,,SR_Meas_QMS101,,TA_Meas_QMH101,,GenWind,,GenWind,
time,status,PA,status,PR,status,RH,status,SR,status,TA,status,DirAvg,status,SpdAvg,
2016-05-24, 07:58:04,VALID,920.571,VALID,0,INVALID,110.082,VALID,114.747,VALID,20.1708,VALID,342,VALID,0,
2016-05-24, 07:59:04,VALID,920.555,VALID,0,INVALID,110.12,VALID,119.26,VALID,20.1529,VALID,342,VALID,0,
2016-05-24, 08:00:04,VALID,920.57,VALID,0,INVALID,110.151,VALID,126.028,VALID,20.1334,VALID,343,VALID,0,
2016-05-24, 08:01:04,VALID,920.526,VALID,0,INVALID,110.082,VALID,133.12,VALID,20.1724,VALID,343,VALID,0,
2016-05-24, 08:02:04,VALID,920.521,VALID,0,INVALID,109.998,VALID,141.5,VALID,20.2504,INVALID,360,VALID,0,
2016-05-24, 08:03:04,VALID,920.513,VALID,0,INVALID,110.158,VALID,145.798,VALID,20.1708,VALID,6,VALID,0,
2016-05-24, 08:04:04,VALID,920.495,VALID,0,INVALID,110.189,VALID,143.112,VALID,20.1919,VALID,360,VALID,0,
2016-05-24, 08:05:04,VALID,920.51,VALID,0,INVALID,110.113,VALID,138.062,VALID,20.2504,VALID,37,VALID,1.39375,
2016-05-24, 08:06:04,VALID,920.526,VALID,0,INVALID,110.158,VALID,135.806,VALID,20.2309,VALID,17,VALID,1.16719,
2016-05-24, 08:07:04,VALID,920.563,VALID,0,INVALID,110.029,VALID,139.888,VALID,20.3074,VALID,17,VALID,0.00585938,
2016-05-24, 08:08:04,VALID,920.548,VALID,0,INVALID,109.876,VALID,143.649,VALID,20.4439,INVALID,360,VALID,0,
2016-05-24, 08:09:04,VALID,920.583,VALID,0,INVALID,109.899,VALID,147.194,VALID,20.4845,VALID,24,VALID,0,
2016-05-24, 08:10:04,VALID,920.581,VALID,0,INVALID,109.914,VALID,146.979,VALID,20.504,VALID,14,VALID,0,
2016-05-24, 08:11:04,VALID,920.601,VALID,0,INVALID,109.998,VALID,149.128,VALID,20.504,VALID,356,VALID,0,
2016-05-24, 08:12:04,VALID,920.593,VALID,0,INVALID,109.953,VALID,150.203,VALID,20.5219,INVALID,360,VALID,0,
2016-05-24, 08:13:04,VALID,920.598,VALID,0,INVALID,109.975,VALID,145.046,VALID,20.5219,VALID,3,VALID,0,
2016-05-24, 08:14:04,VALID,920.583,VALID,0,INVALID,109.907,VALID,144.831,VALID,20.621,VALID,348,VALID,0,
2016-05-24, 08:15:04,VALID,920.599,VALID,0,INVALID,109.953,VALID,143.004,VALID,20.5999,VALID,341,VALID,0,
2016-05-24, 08:16:04,VALID,920.591,VALID,0,INVALID,110.052,VALID,144.186,VALID,20.5609,VALID,352,VALID,0,
2016-05-24, 08:17:04,VALID,920.575,VALID,0,INVALID,110.143,VALID,144.401,VALID,20.543,VALID,356,VALID,0,
2016-05-24, 08:18:04,VALID,920.559,VALID,0,INVALID,110.387,VALID,143.434,VALID,20.465,VALID,5,VALID,0,
2016-05-24, 08:19:04,VALID,920.49,VALID,0,INVALID,110.341,VALID,144.079,VALID,20.4454,VALID,15,VALID,0,
2016-05-24, 08:20:04,VALID,920.542,VALID,0,INVALID,110.418,VALID,144.938,VALID,20.4439,VALID,350,VALID,0,
2016-05-24, 08:21:04,VALID,920.494,VALID,0,INVALID,110.395,VALID,147.517,VALID,20.4439,VALID,28,VALID,0,
2016-05-24, 08:22:04,VALID,920.504,VALID,0,INVALID,110.463,VALID,150.847,VALID,20.4634,INVALID,360,VALID,0,
2016-05-24, 08:23:04,VALID,920.474,VALID,0,INVALID,110.54,VALID,153.211,VALID,20.4634,VALID,347,VALID,0,
2016-05-24, 08:24:04,VALID,920.445,VALID,0,INVALID,110.593,VALID,154.715,VALID,20.4634,INVALID,360,VALID,0,
2016-05-24, 08:25:04,VALID,920.47,VALID,0,INVALID,110.654,VALID,155.36,VALID,20.4845,VALID,358,VALID,0,
2016-05-24, 08:26:04,VALID,920.475,VALID,0,INVALID,110.601,VALID,155.36,VALID,20.5219,VALID,357,VALID,0,
2016-05-24, 08:27:04,VALID,920.468,VALID,0,INVALID,110.486,VALID,155.36,VALID,20.5999,VALID,330,VALID,0,
2016-05-24, 08:28:04,VALID,920.486,VALID,0,INVALID,110.57,VALID,155.79,VALID,20.621,VALID,318,VALID,0,
2016-05-24, 08:29:04,VALID,920.457,VALID,0,INVALID,110.692,VALID,157.938,VALID,20.5999,VALID,337,VALID,0,
2016-05-24, 08:30:04,VALID,920.48,VALID,0,INVALID,110.715,VALID,160.302,VALID,20.6405,VALID,337,VALID,0,
2016-05-24, 08:31:04,VALID,920.447,VALID,0,INVALID,110.806,VALID,158.691,VALID,20.6194,VALID,15,VALID,0,
2016-05-24, 08:32:04,VALID,920.472,VALID,0,INVALID,110.844,VALID,155.682,VALID,20.6585,VALID,21,VALID,0,
2016-05-24, 08:33:04,VALID,920.466,VALID,0,INVALID,110.829,VALID,166.749,VALID,20.6975,VALID,324,VALID,0,
2016-05-24, 08:34:04,VALID,920.449,VALID,0,INVALID,110.997,VALID,172.121,VALID,20.6795,VALID,25,VALID,0,
2016-05-24, 08:35:04,VALID,920.435,VALID,0,INVALID,110.837,VALID,177.063,VALID,20.7755,VALID,354,VALID,0,
2016-05-24, 08:36:04,VALID,920.436,VALID,0,INVALID,110.982,VALID,183.402,VALID,20.756,VALID,314,VALID,0,
2016-05-24, 08:37:04,VALID,920.424,VALID,0,INVALID,111.096,VALID,188.237,VALID,20.795,VALID,335,VALID,0,
2016-05-24, 08:38:04,VALID,920.427,VALID,0,INVALID,111.218,VALID,194.791,VALID,20.7755,VALID,299,VALID,0,
2016-05-24, 08:39:04,VALID,920.444,VALID,0,INVALID,111.287,VALID,194.683,VALID,20.795,VALID,269,VALID,0,
2016-05-24, 08:40:04,VALID,920.422,VALID,0,INVALID,111.37,VALID,192.857,VALID,20.7755,VALID,265,VALID,0,
2016-05-24, 08:41:04,VALID,920.427,VALID,0,INVALID,111.531,VALID,204.675,VALID,20.7365,VALID,257,VALID,0,
2016-05-24, 08:42:04,VALID,920.427,VALID,0,INVALID,111.538,VALID,212.626,VALID,20.7365,VALID,257,VALID,0,
2016-05-24, 08:43:04,VALID,920.408,VALID,0,INVALID,111.546,VALID,219.073,VALID,20.756,VALID,257,VALID,0,
2016-05-24, 08:44:04,VALID,920.388,VALID,0,INVALID,111.637,VALID,223.478,VALID,20.7755,VALID,257,VALID,0,
2016-05-24, 08:45:04,VALID,920.39,VALID,0,INVALID,111.63,VALID,225.734,VALID,20.8145,VALID,257,VALID,0,
2016-05-24, 08:46:04,VALID,920.4,VALID,0,INVALID,111.637,VALID,227.345,VALID,20.8925,VALID,257,VALID,0,
2016-05-24, 08:47:04,VALID,920.445,VALID,0,INVALID,111.79,VALID,227.345,VALID,20.8925,VALID,257,VALID,0,
2016-05-24, 08:48:04,VALID,920.403,VALID,0,INVALID,112.079,VALID,226.808,VALID,20.873,VALID,337,VALID,0,
2016-05-24, 08:49:04,VALID,920.4,VALID,0,INVALID,112.354,VALID,225.734,VALID,20.8519,VALID,335,VALID,0,
2016-05-24, 08:50:04,VALID,920.4,VALID,0,INVALID,112.491,VALID,223.37,VALID,20.891,VALID,324,VALID,0,
2016-05-24, 08:51:04,VALID,920.406,VALID,0,INVALID,112.682,VALID,221.544,VALID,20.9495,VALID,329,VALID,0,
2016-05-24, 08:52:04,VALID,920.398,VALID,0,INVALID,112.872,VALID,220.254,VALID,20.9901,VALID,329,VALID,0,
2016-05-24, 08:53:04,VALID,920.393,VALID,0,INVALID,113.101,VALID,221.759,VALID,21.008,VALID,329,VALID,0,
2016-05-24, 08:54:04,VALID,920.391,VALID,0,INVALID,113.292,VALID,225.089,VALID,21.0665,VALID,329,VALID,0,
2016-05-24, 08:55:04,VALID,920.4,VALID,0,INVALID,113.375,VALID,229.602,VALID,21.1445,VALID,329,VALID,0,
2016-05-24, 08:56:04,VALID,920.405,VALID,0,INVALID,113.558,VALID,234.759,VALID,21.1836,VALID,334,VALID,0,
2016-05-24, 08:57:04,VALID,920.414,VALID,0,INVALID,113.574,VALID,238.949,VALID,21.2421,VALID,316,VALID,0,
2016-05-24, 08:58:04,VALID,920.391,VALID,0,INVALID,113.49,VALID,241.743,VALID,21.2031,VALID,291,VALID,0,
2016-05-24, 08:59:04,VALID,920.399,VALID,0,INVALID,113.093,VALID,244.106,VALID,21.2031,VALID,291,VALID,0,
2016-05-24, 09:00:04,VALID,920.422,VALID,0,INVALID,112.91,VALID,245.073,VALID,21.2421,VALID,291,VALID,0,
2016-05-24, 09:01:04,VALID,920.415,VALID,0,INVALID,112.827,VALID,244.751,VALID,21.2632,VALID,306,VALID,0,
2016-05-24, 09:02:04,VALID,920.413,VALID,0,INVALID,112.636,VALID,241.85,VALID,21.2616,VALID,307,VALID,0,
2016-05-24, 09:03:04,VALID,920.406,VALID,0,INVALID,111.325,VALID,236.908,VALID,21.2031,VALID,307,VALID,0,
2016-05-24, 09:04:04,VALID,920.408,VALID,0,INVALID,111.492,VALID,231.536,VALID,21.2811,VALID,307,VALID,0,
2016-05-24, 09:05:04,VALID,920.389,VALID,0,INVALID,111.874,VALID,226.593,VALID,21.3201,VALID,306,VALID,0,
2016-05-24, 09:06:04,VALID,920.395,VALID,0,INVALID,110.936,VALID,222.833,VALID,21.221,VALID,290,VALID,0,
2016-05-24, 09:07:04,VALID,920.384,VALID,0,INVALID,110.776,VALID,219.61,VALID,21.2405,VALID,360,VALID,0,
2016-05-24, 09:08:04,VALID,920.38,VALID,0,INVALID,110.898,VALID,217.783,VALID,21.3201,VALID,360,VALID,0,
2016-05-24, 09:09:04,VALID,920.343,VALID,0,INVALID,111.767,VALID,216.709,VALID,21.3981,VALID,17,VALID,0,
2016-05-24, 09:10:04,VALID,920.346,VALID,0,INVALID,111.988,VALID,216.924,VALID,21.4372,VALID,8,VALID,0,
2016-05-24, 09:11:04,VALID,920.346,VALID,0,INVALID,111.668,VALID,217.783,VALID,21.377,VALID,23,VALID,0,
2016-05-24, 09:12:04,VALID,920.331,VALID,0,INVALID,112.072,VALID,219.073,VALID,21.4177,VALID,28,VALID,0,
2016-05-24, 09:13:04,VALID,920.314,VALID,0,INVALID,112.788,VALID,220.792,VALID,21.5363,VALID,353,VALID,0.729688,
2016-05-24, 09:14:04,VALID,920.306,VALID,0,INVALID,112.369,VALID,222.188,VALID,21.4778,VALID,2,VALID,0,
2016-05-24, 09:15:04,VALID,920.286,VALID,0,INVALID,112.575,VALID,223.37,VALID,21.5152,VALID,354,VALID,0,
2016-05-24, 09:16:04,VALID,920.281,VALID,0,INVALID,112.567,VALID,224.659,VALID,21.5347,VALID,349,VALID,0,
2016-05-24, 09:17:04,VALID,920.28,VALID,0,INVALID,112.674,VALID,225.734,VALID,21.5737,VALID,356,VALID,0,
2016-05-24, 09:18:04,VALID,920.256,VALID,0,INVALID,112.979,VALID,227.023,VALID,21.6713,VALID,23,VALID,0,
2016-05-24, 09:19:04,VALID,920.25,VALID,0,INVALID,112.849,VALID,228.635,VALID,21.6323,VALID,17,VALID,0,
2016-05-24, 09:20:04,VALID,920.234,VALID,0,INVALID,112.705,VALID,229.709,VALID,21.5932,VALID,6,VALID,0,
2016-05-24, 09:21:04,VALID,920.202,VALID,0,INVALID,112.979,VALID,230.569,VALID,21.6339,VALID,24,VALID,0,
2016-05-24, 09:22:04,VALID,920.246,VALID,0,INVALID,113.192,VALID,230.461,VALID,21.6729,VALID,25,VALID,0,
2016-05-24, 09:23:04,VALID,920.198,VALID,0,INVALID,111.752,VALID,229.387,VALID,21.5168,VALID,31,VALID,0,
2016-05-24, 09:24:04,VALID,920.212,VALID,0,INVALID,112.323,VALID,227.668,VALID,21.5949,VALID,33,VALID,0,
2016-05-24, 09:25:04,VALID,920.211,VALID,0,INVALID,111.332,VALID,225.519,VALID,21.4957,VALID,25,VALID,0,
2016-05-24, 09:26:04,VALID,920.184,VALID,0,INVALID,111.127,VALID,224.337,VALID,21.5347,VALID,22,VALID,0,
2016-05-24, 09:27:04,VALID,920.168,VALID,0,INVALID,111.797,VALID,224.122,VALID,21.5542,VALID,358,VALID,0,
2016-05-24, 09:28:04,VALID,920.141,VALID,0,INVALID,111.066,VALID,224.337,VALID,21.5152,VALID,356,VALID,0,
2016-05-24, 09:29:04,VALID,920.138,VALID,0,INVALID,111.843,VALID,224.445,VALID,21.5542,VALID,47,VALID,0,
2016-05-24, 09:30:04,VALID,920.103,VALID,0,INVALID,111.5,VALID,224.122,VALID,21.4957,VALID,65,VALID,0,
2016-05-24, 09:31:04,VALID,920.082,VALID,0,INVALID,111.424,VALID,223.8,VALID,21.4762,VALID,47,VALID,0,
2016-05-24, 09:32:04,VALID,920.07,VALID,0,INVALID,111.531,VALID,223.8,VALID,21.4957,VALID,60,VALID,0,
2016-05-24, 09:33:04,VALID,920.046,VALID,0,INVALID,110.753,VALID,224.552,VALID,21.4567,VALID,42,VALID,0,
2016-05-24, 09:34:04,VALID,920.038,VALID,0,INVALID,110.692,VALID,225.734,VALID,21.5347,VALID,40,VALID,0,
2016-05-24, 09:35:04,VALID,920.025,VALID,0,INVALID,109.648,VALID,226.486,VALID,21.5347,VALID,53,VALID,0,
2016-05-24, 09:36:04,VALID,920.034,VALID,0,INVALID,109.495,VALID,226.808,VALID,21.5932,VALID,58,VALID,0,
2016-05-24, 09:37:04,VALID,920,VALID,0,INVALID,109.899,VALID,227.56,VALID,21.6713,VALID,25,VALID,0,
2016-05-24, 09:38:04,VALID,920.031,VALID,0,INVALID,110.174,VALID,228.742,VALID,21.7493,VALID,13,VALID,0,
2016-05-24, 09:39:04,VALID,919.987,VALID,0,INVALID,110.669,VALID,230.139,VALID,21.8469,VALID,16,VALID,0,
2016-05-24, 09:40:04,VALID,919.996,VALID,0,VALID,104,VALID,231.643,VALID,21.8469,VALID,6,VALID,0,
2016-05-24, 09:41:04,VALID,919.974,VALID,0,VALID,104,VALID,233.04,VALID,21.8452,VALID,358,VALID,0,
2016-05-24, 09:42:04,VALID,919.976,VALID,0,VALID,104,VALID,234.759,VALID,21.8257,VALID,357,VALID,0,
2016-05-24, 09:43:04,VALID,919.971,VALID,0,VALID,104,VALID,236.908,VALID,21.8079,VALID,7,VALID,0,
2016-05-24, 09:44:04,VALID,919.989,VALID,0,VALID,104,VALID,239.271,VALID,21.8079,VALID,3,VALID,0,
2016-05-24, 09:45:04,VALID,919.972,VALID,0,INVALID,109.228,VALID,240.991,VALID,21.8647,VALID,23,VALID,0,
2016-05-24, 09:46:04,VALID,919.922,VALID,0,VALID,104,VALID,242.28,VALID,21.9444,VALID,6,VALID,0,
2016-05-24, 09:47:04,VALID,919.931,VALID,0,VALID,104,VALID,242.817,VALID,21.964,VALID,36,VALID,0,
2016-05-24, 09:48:04,VALID,919.881,VALID,0,VALID,104,VALID,244.106,VALID,22.0208,VALID,51,VALID,0,
2016-05-24, 09:49:04,VALID,919.859,VALID,0,VALID,104,VALID,245.503,VALID,22.0403,VALID,43,VALID,0,
2016-05-24, 09:50:04,VALID,919.821,VALID,0,VALID,102.748,VALID,247.652,VALID,21.9623,VALID,39,VALID,0,
2016-05-24, 09:51:04,VALID,919.807,VALID,0,VALID,103.252,VALID,250.016,VALID,22.0013,VALID,39,VALID,0,
2016-05-24, 09:52:04,VALID,919.816,VALID,0,VALID,104,VALID,252.057,VALID,22.0794,VALID,40,VALID,0,
2016-05-24, 09:53:04,VALID,919.776,VALID,0,VALID,104,VALID,253.776,VALID,22.1184,VALID,44,VALID,0,
2016-05-24, 09:54:04,VALID,919.793,VALID,0,VALID,96.1846,VALID,255.388,VALID,22.1184,VALID,44,VALID,0,
2016-05-24, 09:55:04,VALID,919.744,VALID,0,VALID,97.2977,VALID,256.999,VALID,22.1379,VALID,30,VALID,0,
2016-05-24, 09:56:04,VALID,919.763,VALID,0,VALID,104,VALID,259.47,VALID,22.1769,VALID,26,VALID,0,
2016-05-24, 09:57:04,VALID,919.743,VALID,0,VALID,97.2214,VALID,263.123,VALID,22.2354,VALID,35,VALID,0,
2016-05-24, 09:58:04,VALID,919.721,VALID,0,VALID,104,VALID,268.818,VALID,22.294,VALID,12,VALID,0,
2016-05-24, 09:59:04,VALID,919.735,VALID,0,VALID,104,VALID,276.768,VALID,22.4111,VALID,59,VALID,0,
2016-05-24, 10:00:04,VALID,919.703,VALID,0,VALID,99.1273,VALID,286.223,VALID,22.4111,VALID,90,VALID,0,
2016-05-24, 10:01:04,VALID,919.717,VALID,0,VALID,104,VALID,296.323,VALID,22.4891,VALID,49,VALID,0,
2016-05-24, 10:02:04,VALID,919.673,VALID,0,VALID,99.5999,VALID,306.53,VALID,22.5103,VALID,45,VALID,0,
2016-05-24, 10:03:04,VALID,919.69,VALID,0,VALID,99.9201,VALID,316.951,VALID,22.5281,VALID,37,VALID,0.545313,
2016-05-24, 10:04:04,VALID,919.666,VALID,0,VALID,82.6455,VALID,322.109,VALID,22.4891,VALID,51,VALID,0,
2016-05-24, 10:05:04,VALID,919.682,VALID,0,VALID,98.9672,VALID,327.158,VALID,22.5477,VALID,54,VALID,0,
2016-05-24, 10:06:04,VALID,919.663,VALID,0,VALID,101.376,VALID,330.274,VALID,22.6062,VALID,72,VALID,0,
2016-05-24, 10:07:04,VALID,919.644,VALID,0,VALID,104,VALID,333.282,VALID,22.6647,VALID,54,VALID,0,
2016-05-24, 10:08:04,VALID,919.624,VALID,0,VALID,98.769,VALID,334.464,VALID,22.5867,VALID,87,VALID,0.276953,
2016-05-24, 10:09:04,VALID,919.613,VALID,0,VALID,93.8519,VALID,336.506,VALID,22.5281,VALID,65,VALID,0,
2016-05-24, 10:10:04,VALID,919.621,VALID,0,VALID,98.8757,VALID,340.266,VALID,22.5086,VALID,63,VALID,0.0121094,
2016-05-24, 10:11:04,VALID,919.573,VALID,0,VALID,88.0428,VALID,346.068,VALID,22.5281,VALID,77,VALID,0,
2016-05-24, 10:12:04,VALID,919.561,VALID,0,VALID,89.4455,VALID,352.729,VALID,22.5867,VALID,41,VALID,0.347266,
2016-05-24, 10:13:04,VALID,919.525,VALID,0,VALID,89.5142,VALID,359.82,VALID,22.5672,VALID,70,VALID,0,
2016-05-24, 10:14:04,VALID,919.509,VALID,0,VALID,86.5639,VALID,364.763,VALID,22.6079,VALID,54,VALID,0.046875,
2016-05-24, 10:15:04,VALID,919.469,VALID,0,VALID,82.4854,VALID,369.168,VALID,22.6062,VALID,49,VALID,0,
2016-05-24, 10:16:04,VALID,919.458,VALID,0,VALID,94.82,VALID,378.408,VALID,22.6452,VALID,49,VALID,0,
2016-05-24, 10:17:04,VALID,919.422,VALID,0,VALID,101.147,VALID,382.061,VALID,22.7233,VALID,52,VALID,0,
2016-05-24, 10:18:04,VALID,919.397,VALID,0,VALID,87.7684,VALID,400.433,VALID,22.7428,VALID,42,VALID,0,
2016-05-24, 10:19:04,VALID,919.382,VALID,0,VALID,83.8195,VALID,422.029,VALID,22.7818,VALID,43,VALID,0,
2016-05-24, 10:20:04,VALID,919.346,VALID,0,VALID,84.6047,VALID,432.236,VALID,22.8794,VALID,80,VALID,0,
2016-05-24, 10:21:04,VALID,919.308,VALID,0,VALID,82.6378,VALID,467.154,VALID,22.9167,VALID,35,VALID,0,
2016-05-24, 10:22:04,VALID,919.271,VALID,0,VALID,84.3074,VALID,423.533,VALID,23.0533,VALID,43,VALID,0.139062,
2016-05-24, 10:23:04,VALID,919.242,VALID,0,VALID,83.9719,VALID,454.906,VALID,23.1314,VALID,50,VALID,0,
2016-05-24, 10:24:04,VALID,919.215,VALID,0,VALID,86.3809,VALID,648.515,VALID,23.1509,VALID,42,VALID,0.00195313,
2016-05-24, 10:25:04,VALID,919.192,VALID,0,VALID,82.4625,VALID,440.186,VALID,23.1899,VALID,89,VALID,0.0289063,
2016-05-24, 10:26:04,VALID,919.154,VALID,0,VALID,85.954,VALID,495.411,VALID,23.268,VALID,91,VALID,0,
2016-05-24, 10:27:04,VALID,919.108,VALID,0,VALID,95.2927,VALID,426.971,VALID,23.3265,VALID,79,VALID,0,
2016-05-24, 10:28:04,VALID,919.093,VALID,0,VALID,93.3182,VALID,407.202,VALID,23.4064,VALID,86,VALID,0.626172,
2016-05-24, 10:29:04,VALID,919.069,VALID,0,VALID,90.9169,VALID,402.152,VALID,23.4064,VALID,120,VALID,0,
2016-05-24, 10:30:04,VALID,919.045,VALID,0,VALID,94.599,VALID,398.929,VALID,23.4632,VALID,127,VALID,0,
2016-05-24, 10:31:04,VALID,919.034,VALID,0,VALID,86.9451,VALID,391.623,VALID,23.6016,VALID,97,VALID,0,
2016-05-24, 10:32:04,VALID,919.015,VALID,0,VALID,84.6047,VALID,391.301,VALID,23.5803,VALID,113,VALID,0,
2016-05-24, 10:33:04,VALID,918.997,VALID,0,VALID,89.5523,VALID,410.103,VALID,23.6992,VALID,7,VALID,0,
2016-05-24, 10:34:04,VALID,918.993,VALID,0,VALID,82.7141,VALID,413.541,VALID,23.6992,VALID,59,VALID,0,
2016-05-24, 10:35:04,VALID,918.99,VALID,0,VALID,80.3279,VALID,428.905,VALID,23.7187,VALID,105,VALID,0,
2016-05-24, 10:36:04,VALID,918.969,VALID,0,VALID,78.5212,VALID,502.18,VALID,23.6388,VALID,143,VALID,0,
2016-05-24, 10:37:04,VALID,918.939,VALID,0,VALID,82.554,VALID,596.298,VALID,23.834,VALID,46,VALID,0,
2016-05-24, 10:38:04,VALID,918.909,VALID,0,VALID,78.1019,VALID,652.275,VALID,23.9512,VALID,36,VALID,0,
2016-05-24, 10:39:04,VALID,918.905,VALID,0,VALID,80.8768,VALID,545.156,VALID,24.1269,VALID,19,VALID,0,
2016-05-24, 10:40:04,VALID,918.913,VALID,0,VALID,77.0041,VALID,548.917,VALID,24.363,VALID,18,VALID,0,
2016-05-24, 10:41:04,VALID,918.902,VALID,0,VALID,77.5073,VALID,619.613,VALID,24.6735,VALID,17,VALID,0,
2016-05-24, 10:42:04,VALID,918.884,VALID,0,VALID,73.8861,VALID,711.798,VALID,24.8102,VALID,96,VALID,0,
2016-05-24, 10:43:04,VALID,918.877,VALID,0,VALID,73.3525,VALID,564.711,VALID,24.9469,VALID,74,VALID,0,
2016-05-24, 10:44:04,VALID,918.853,VALID,0,VALID,76.0588,VALID,639.382,VALID,24.8297,VALID,68,VALID,0,
2016-05-24, 10:45:04,VALID,918.819,VALID,0,VALID,78.2925,VALID,610.373,VALID,24.7888,VALID,82,VALID,0,
2016-05-24, 10:46:04,VALID,918.83,VALID,0,VALID,76.2875,VALID,583.191,VALID,25.0055,VALID,43,VALID,0,
2016-05-24, 10:47:04,VALID,918.856,VALID,0,VALID,74.9153,VALID,698.045,VALID,25.0231,VALID,32,VALID,0,
2016-05-24, 10:48:04,VALID,918.827,VALID,0,VALID,73.5202,VALID,583.513,VALID,25.1031,VALID,29,VALID,0.527344,
2016-05-24, 10:49:04,VALID,918.842,VALID,0,VALID,71.9879,VALID,510.345,VALID,25.0836,VALID,1,VALID,0,
2016-05-24, 10:50:04,VALID,918.821,VALID,0,VALID,71.2332,VALID,610.91,VALID,25.105,VALID,337,VALID,0,
2016-05-24, 10:51:04,VALID,918.856,VALID,0,VALID,73.1772,VALID,544.834,VALID,25.0855,VALID,5,VALID,0,
2016-05-24, 10:52:04,VALID,918.818,VALID,0,VALID,74.7552,VALID,526.677,VALID,25.025,VALID,32,VALID,0,
2016-05-24, 10:53:04,VALID,918.814,VALID,0,VALID,73.1086,VALID,524.528,VALID,25.105,VALID,36,VALID,0,
2016-05-24, 10:54:04,VALID,918.777,VALID,0,VALID,76.4857,VALID,548.165,VALID,25.2222,VALID,40,VALID,0,
2016-05-24, 10:55:04,VALID,918.74,VALID,0,VALID,76.8059,VALID,536.561,VALID,25.3589,VALID,59,VALID,0,
2016-05-24, 10:56:04,VALID,918.726,VALID,0,VALID,78.9176,VALID,515.825,VALID,25.5132,VALID,18,VALID,0,
2016-05-24, 10:57:04,VALID,918.694,VALID,0,VALID,75.9368,VALID,493.37,VALID,25.728,INVALID,360,VALID,0,
2016-05-24, 10:58:04,VALID,918.658,VALID,0,VALID,74.1835,VALID,485.204,VALID,25.7866,VALID,31,VALID,1.18281,
2016-05-24, 10:59:04,VALID,918.632,VALID,0,VALID,75.9978,VALID,503.039,VALID,25.8062,VALID,34,VALID,0,
2016-05-24, 11:00:04,VALID,918.633,VALID,0,VALID,73.6117,VALID,476.609,VALID,25.7671,VALID,33,VALID,0,
2016-05-24, 11:01:04,VALID,918.58,VALID,0,VALID,73.5965,VALID,478.328,VALID,25.5913,VALID,40,VALID,0.00117188,
2016-05-24, 11:02:04,VALID,918.557,VALID,0,VALID,76.9508,VALID,507.015,VALID,25.4351,VALID,24,VALID,0,
2016-05-24, 11:03:04,VALID,918.521,VALID,0,VALID,77.5073,VALID,503.039,VALID,25.4156,VALID,45,VALID,1.6418,
2016-05-24, 11:04:04,VALID,918.505,VALID,0,VALID,75.0068,VALID,494.014,VALID,25.3374,VALID,10,VALID,0.0121094,
2016-05-24, 11:05:04,VALID,918.464,VALID,0,VALID,78.079,VALID,490.147,VALID,25.2203,VALID,30,VALID,1.00586,
2016-05-24, 11:06:04,VALID,918.42,VALID,0,VALID,76.0055,VALID,496.271,VALID,25.0231,VALID,25,VALID,1.70117,
2016-05-24, 11:07:04,VALID,918.418,VALID,0,VALID,77.5683,VALID,514.106,VALID,24.8669,VALID,20,VALID,0.0925781,
2016-05-24, 11:08:04,VALID,918.385,VALID,0,VALID,78.018,VALID,503.039,VALID,24.7302,VALID,3,VALID,1.30625,
2016-05-24, 11:09:04,VALID,918.351,VALID,0,VALID,79.2912,VALID,495.733,VALID,24.6149,VALID,14,VALID,0.790234,
2016-05-24, 11:10:04,VALID,918.353,VALID,0,VALID,77.6292,VALID,481.444,VALID,24.5368,VALID,356,VALID,0,
2016-05-24, 11:11:04,VALID,918.366,VALID,0,VALID,79.5199,VALID,483.378,VALID,24.5954,VALID,24,VALID,0.00507812,
2016-05-24, 11:12:04,VALID,918.331,VALID,0,VALID,77.614,VALID,511.957,VALID,24.4764,VALID,27,VALID,2.74688,
2016-05-24, 11:13:04,VALID,918.349,VALID,0,VALID,78.5822,VALID,570.083,VALID,24.4197,VALID,27,VALID,0.455859,
2016-05-24, 11:14:04,VALID,918.358,VALID,0,VALID,84.4751,VALID,744.782,VALID,24.5173,VALID,26,VALID,0.916016,
2016-05-24, 11:15:04,VALID,918.31,VALID,0,VALID,82.8894,VALID,882.522,VALID,24.7907,VALID,26,VALID,0.169922,
2016-05-24, 11:16:04,VALID,918.321,VALID,0,VALID,80.0764,VALID,700.194,VALID,25.1031,VALID,30,VALID,0.0121094,
2016-05-24, 11:17:04,VALID,918.288,VALID,0,VALID,76.4247,VALID,657.54,VALID,25.2593,VALID,4,VALID,0,
2016-05-24, 11:18:04,VALID,918.25,VALID,0,VALID,78.6889,VALID,573.951,VALID,25.355,VALID,61,VALID,0,
2016-05-24, 11:19:04,VALID,918.257,VALID,0,VALID,74.7705,VALID,561.702,VALID,25.5894,VALID,247,VALID,0.00117188,
2016-05-24, 11:20:04,VALID,918.212,VALID,0,VALID,73.909,VALID,499.709,VALID,25.7651,VALID,347,VALID,0,
2016-05-24, 11:21:04,VALID,918.159,VALID,0,VALID,72.9027,VALID,460.278,VALID,25.7476,VALID,14,VALID,0.208984,
2016-05-24, 11:22:04,VALID,918.168,VALID,0,VALID,73.9471,VALID,448.674,VALID,25.5894,VALID,351,VALID,0,
2016-05-24, 11:23:04,VALID,918.176,VALID,0,VALID,71.1798,VALID,430.624,VALID,25.5308,VALID,326,VALID,0.352734,
2016-05-24, 11:24:04,VALID,918.134,VALID,0,VALID,71.8278,VALID,418.054,VALID,25.3746,VALID,334,VALID,0,
2016-05-24, 11:25:04,VALID,918.1,VALID,0,VALID,75.3727,VALID,408.491,VALID,25.2769,VALID,357,VALID,0,
2016-05-24, 11:26:04,VALID,918.074,VALID,0,VALID,74.1987,VALID,402.689,VALID,25.2574,VALID,349,VALID,0,
2016-05-24, 11:27:04,VALID,918.089,VALID,0,VALID,75.3575,VALID,397.317,VALID,25.1793,VALID,343,VALID,0,
2016-05-24, 11:28:04,VALID,918.059,VALID,0,VALID,79.8248,VALID,390.656,VALID,25.2574,VALID,42,VALID,0.834375,
2016-05-24, 11:29:04,VALID,918.087,VALID,0,VALID,78.1629,VALID,381.738,VALID,25.355,VALID,23,VALID,0.515625,
2016-05-24, 11:30:04,VALID,918.05,VALID,0,VALID,75.2584,VALID,368.738,VALID,25.4527,VALID,3,VALID,1.26641,
2016-05-24, 11:31:04,VALID,918.065,VALID,0,VALID,75.1898,VALID,356.705,VALID,25.3746,VALID,322,VALID,0.410937,
2016-05-24, 11:32:04,VALID,918.109,VALID,0,VALID,78.0409,VALID,345.101,VALID,25.1793,VALID,7,VALID,0.0925781,
2016-05-24, 11:33:04,VALID,918.084,VALID,0,VALID,75.4108,VALID,339.514,VALID,25.0817,VALID,20,VALID,1.01602,
2016-05-24, 11:34:04,VALID,918.08,VALID,0,VALID,78.7194,VALID,339.836,VALID,25.0036,VALID,23,VALID,0.000390625,
2016-05-24, 11:35:04,VALID,918.037,VALID,0,VALID,77.5378,VALID,346.175,VALID,25.0426,VALID,359,VALID,0,
2016-05-24, 11:36:04,VALID,918.047,VALID,0,VALID,79.84,VALID,360.25,VALID,25.1012,VALID,359,VALID,0,
2016-05-24, 11:37:04,VALID,917.979,VALID,0,VALID,77.7131,VALID,383.35,VALID,25.0426,VALID,360,VALID,0,
2016-05-24, 11:38:04,VALID,917.954,VALID,0,VALID,78.2467,VALID,409.995,VALID,25.0231,VALID,19,VALID,0,
2016-05-24, 11:39:04,VALID,917.918,VALID,0,VALID,79.1082,VALID,425.897,VALID,25.1402,VALID,6,VALID,0,
2016-05-24, 11:40:04,VALID,917.887,VALID,0,VALID,77.8732,VALID,426.971,VALID,25.1793,VALID,329,VALID,0,
2016-05-24, 11:41:04,VALID,917.896,VALID,0,VALID,77.4996,VALID,415.153,VALID,25.0602,VALID,317,VALID,0,
2016-05-24, 11:42:04,VALID,917.875,VALID,0,VALID,78.0028,VALID,395.813,VALID,25.0993,VALID,317,VALID,0,